contact:dominique.lefevre@mio.osupytheas.fr, maurice.libes@osupytheas.fr, didier.mallarino@osupytheas.fr
Project:EMSO http://www.emso-fr.org/EMSO-France
Depth: 2436.0 m
Title:EMSO Ligure Ouest : Data MII capteur CSTAR
DateTime,Latitude,Longitude,Instrument_Serial,Reference_Counts,Signal_Counts,Corrected_Signal_raw_counts,Calculated_Beam_c_inverse_meters,Internal_thermistor_counts
DateTime,Latitude,Longitude,Instrument_Serial,Reference_Counts,Signal_Counts,Corrected_Signal_raw_counts,Calculated_Beam_c_inverse_meters,Internal_thermistor_counts
2022-07-28T00:00:14,42.805,6.029,CST-1368DR,4640,4990,11455,01.239,551
2022-07-28T00:03:16,42.805,6.029,CST-1368DR,4640,4990,11455,01.239,551
2022-07-28T00:06:17,42.805,6.029,CST-1368DR,4640,4989,11452,01.241,551
2022-07-28T00:09:19,42.805,6.029,CST-1368DR,4640,4986,11446,01.243,551
2022-07-28T00:12:21,42.805,6.029,CST-1368DR,4640,4990,11455,01.239,551
2022-07-28T00:15:22,42.805,6.029,CST-1368DR,4640,4988,11450,01.241,551
2022-07-28T00:18:24,42.805,6.029,CST-1368DR,4640,4987,11448,01.242,551
2022-07-28T00:21:25,42.805,6.029,CST-1368DR,4640,4987,11447,01.242,551
2022-07-28T00:24:27,42.805,6.029,CST-1368DR,4640,4988,11451,01.241,551
2022-07-28T00:27:28,42.805,6.029,CST-1368DR,4640,4989,11452,01.241,551
2022-07-28T00:30:30,42.805,6.029,CST-1368DR,4640,4987,11448,01.242,551
2022-07-28T00:33:32,42.805,6.029,CST-1368DR,4640,4985,11443,01.244,551
2022-07-28T00:36:33,42.805,6.029,CST-1368DR,4640,4987,11447,01.242,551
2022-07-28T00:39:35,42.805,6.029,CST-1368DR,4640,4989,11452,01.241,551
2022-07-28T00:42:36,42.805,6.029,CST-1368DR,4640,4987,11448,01.242,551
2022-07-28T00:45:38,42.805,6.029,CST-1368DR,4640,4990,11455,01.239,551
2022-07-28T00:48:39,42.805,6.029,CST-1368DR,4640,4988,11451,01.241,551
2022-07-28T00:51:41,42.805,6.029,CST-1368DR,4640,4988,11451,01.241,551
2022-07-28T00:54:43,42.805,6.029,CST-1368DR,4640,4986,11446,01.243,551
2022-07-28T00:57:44,42.805,6.029,CST-1368DR,4640,4985,11444,01.243,551
2022-07-28T01:00:46,42.805,6.029,CST-1368DR,4640,4987,11448,01.242,551
2022-07-28T01:03:47,42.805,6.029,CST-1368DR,4640,4986,11445,01.243,551
2022-07-28T01:06:49,42.805,6.029,CST-1368DR,4640,4983,11439,01.245,551
2022-07-28T01:09:51,42.805,6.029,CST-1368DR,4640,4985,11442,01.244,551
2022-07-28T01:12:52,42.805,6.029,CST-1368DR,4640,4987,11448,01.242,551
2022-07-28T01:15:54,42.805,6.029,CST-1368DR,4640,4985,11442,01.244,551
2022-07-28T01:18:55,42.805,6.029,CST-1368DR,4640,4984,11440,01.245,551
2022-07-28T01:21:57,42.805,6.029,CST-1368DR,4640,4987,11447,01.242,551
2022-07-28T01:24:58,42.805,6.029,CST-1368DR,4639,4980,11434,01.247,551
2022-07-28T01:28:00,42.805,6.029,CST-1368DR,4640,4983,11439,01.245,551
2022-07-28T01:31:02,42.805,6.029,CST-1368DR,4639,4984,11443,01.244,551
2022-07-28T01:34:03,42.805,6.029,CST-1368DR,4639,4986,11447,01.242,551
2022-07-28T01:37:05,42.805,6.029,CST-1368DR,4640,4986,11445,01.243,551
2022-07-28T01:40:06,42.805,6.029,CST-1368DR,4639,4989,11455,01.239,551
2022-07-28T01:43:08,42.805,6.029,CST-1368DR,4639,4987,11449,01.242,551
2022-07-28T01:46:09,42.805,6.029,CST-1368DR,4639,4986,11447,01.242,551
2022-07-28T01:49:11,42.805,6.029,CST-1368DR,4639,4986,11447,01.242,551
2022-07-28T01:52:13,42.805,6.029,CST-1368DR,4639,4988,11453,01.240,551
2022-07-28T01:55:14,42.805,6.029,CST-1368DR,4639,4989,11455,01.239,551
2022-07-28T01:58:16,42.805,6.029,CST-1368DR,4639,4989,11454,01.240,551
2022-07-28T02:01:17,42.805,6.029,CST-1368DR,4639,4989,11455,01.239,551
2022-07-28T02:04:19,42.805,6.029,CST-1368DR,4639,4991,11458,01.238,551
2022-07-28T02:07:21,42.805,6.029,CST-1368DR,4639,4990,11457,01.239,551
2022-07-28T02:10:22,42.805,6.029,CST-1368DR,4639,4993,11463,01.237,551
2022-07-28T02:13:24,42.805,6.029,CST-1368DR,4639,4990,11458,01.238,551
2022-07-28T02:16:25,42.805,6.029,CST-1368DR,4639,4994,11466,01.236,551
2022-07-28T02:19:27,42.805,6.029,CST-1368DR,4639,4992,11462,01.237,551
2022-07-28T02:22:28,42.805,6.029,CST-1368DR,4639,4992,11461,01.237,551
2022-07-28T02:25:30,42.805,6.029,CST-1368DR,4639,4990,11456,01.239,551
2022-07-28T02:28:32,42.805,6.029,CST-1368DR,4639,4990,11456,01.239,551
2022-07-28T02:31:33,42.805,6.029,CST-1368DR,4639,4990,11458,01.238,551
2022-07-28T02:34:35,42.805,6.029,CST-1368DR,4639,4993,11463,01.237,551
2022-07-28T02:37:36,42.805,6.029,CST-1368DR,4640,4995,11466,01.236,551
2022-07-28T02:40:38,42.805,6.029,CST-1368DR,4640,4995,11467,01.235,551
2022-07-28T02:43:39,42.805,6.029,CST-1368DR,4639,4992,11462,01.237,551
2022-07-28T02:46:41,42.805,6.029,CST-1368DR,4640,4995,11465,01.236,551
2022-07-28T02:49:43,42.805,6.029,CST-1368DR,4640,4996,11468,01.235,551
2022-07-28T02:52:44,42.805,6.029,CST-1368DR,4639,4994,11466,01.236,551
2022-07-28T02:55:46,42.805,6.029,CST-1368DR,4639,4994,11465,01.236,551
2022-07-28T02:58:47,42.805,6.029,CST-1368DR,4639,4993,11465,01.236,551
2022-07-28T03:01:49,42.805,6.029,CST-1368DR,4639,5000,11479,01.231,551
2022-07-28T03:04:51,42.805,6.029,CST-1368DR,4639,4993,11464,01.236,551
2022-07-28T03:07:52,42.805,6.029,CST-1368DR,4639,4992,11462,01.237,551
2022-07-28T03:10:54,42.805,6.029,CST-1368DR,4639,4987,11451,01.241,551
2022-07-28T03:13:55,42.805,6.029,CST-1368DR,4639,4992,11462,01.237,551
2022-07-28T03:16:57,42.805,6.029,CST-1368DR,4639,4993,11463,01.237,551
2022-07-28T03:19:58,42.805,6.029,CST-1368DR,4639,4993,11465,01.236,551
2022-07-28T03:23:00,42.805,6.029,CST-1368DR,4639,4992,11462,01.237,551
2022-07-28T03:26:02,42.805,6.029,CST-1368DR,4639,4994,11466,01.236,551
2022-07-28T03:29:03,42.805,6.029,CST-1368DR,4639,4994,11466,01.236,551
2022-07-28T03:32:05,42.805,6.029,CST-1368DR,4639,4995,11467,01.235,551
2022-07-28T03:35:06,42.805,6.029,CST-1368DR,4639,4995,11469,01.235,551
2022-07-28T03:38:08,42.805,6.029,CST-1368DR,4639,4996,11471,01.234,551
2022-07-28T03:41:09,42.805,6.029,CST-1368DR,4639,4994,11466,01.236,551
2022-07-28T03:44:11,42.805,6.029,CST-1368DR,4639,5000,11479,01.231,551
2022-07-28T03:47:13,42.805,6.029,CST-1368DR,4639,4996,11471,01.234,551
2022-07-28T03:50:14,42.805,6.029,CST-1368DR,4639,4994,11465,01.236,551
2022-07-28T03:53:16,42.805,6.029,CST-1368DR,4639,4995,11467,01.235,551
2022-07-28T03:56:17,42.805,6.029,CST-1368DR,4639,4995,11469,01.235,551
2022-07-28T03:59:19,42.805,6.029,CST-1368DR,4639,4995,11469,01.235,551
2022-07-28T04:05:06,42.805,6.029,CST-1368DR,4639,4992,11462,01.237,551
2022-07-28T04:08:08,42.805,6.029,CST-1368DR,4639,4993,11463,01.237,551
2022-07-28T04:11:09,42.805,6.029,CST-1368DR,4639,4996,11471,01.234,551
2022-07-28T04:14:11,42.805,6.029,CST-1368DR,4639,4998,11474,01.233,551
2022-07-28T04:17:12,42.805,6.029,CST-1368DR,4639,4995,11467,01.235,551
2022-07-28T04:20:14,42.805,6.029,CST-1368DR,4639,4996,11471,01.234,551
2022-07-28T04:23:16,42.805,6.029,CST-1368DR,4639,4995,11469,01.235,551
2022-07-28T04:26:17,42.805,6.029,CST-1368DR,4639,4997,11474,01.233,551
2022-07-28T04:29:19,42.805,6.029,CST-1368DR,4639,4997,11473,01.233,551
2022-07-28T04:32:20,42.805,6.029,CST-1368DR,4639,4995,11469,01.235,551
2022-07-28T04:35:22,42.805,6.029,CST-1368DR,4639,4997,11473,01.233,551
2022-07-28T04:38:23,42.805,6.029,CST-1368DR,4639,4996,11471,01.234,551
2022-07-28T04:41:25,42.805,6.029,CST-1368DR,4639,4996,11470,01.234,551
2022-07-28T04:44:27,42.805,6.029,CST-1368DR,4639,4992,11461,01.237,551
2022-07-28T04:47:28,42.805,6.029,CST-1368DR,4639,4993,11464,01.236,551
2022-07-28T04:50:30,42.805,6.029,CST-1368DR,4638,4992,11464,01.236,551
2022-07-28T04:53:31,42.805,6.029,CST-1368DR,4638,4991,11461,01.237,551
2022-07-28T04:56:33,42.805,6.029,CST-1368DR,4639,5006,11493,01.226,551
2022-07-28T04:59:35,42.805,6.029,CST-1368DR,4638,4993,11466,01.236,550
2022-07-28T05:02:36,42.805,6.029,CST-1368DR,4639,4991,11459,01.238,551
2022-07-28T05:05:38,42.805,6.029,CST-1368DR,4639,4991,11459,01.238,551
2022-07-28T05:08:39,42.805,6.029,CST-1368DR,4638,4951,11370,01.269,551
2022-07-28T05:11:41,42.805,6.029,CST-1368DR,4639,4991,11459,01.238,551
2022-07-28T05:14:42,42.805,6.029,CST-1368DR,4639,4990,11456,01.239,551
2022-07-28T05:17:44,42.805,6.029,CST-1368DR,4639,4990,11458,01.238,551
2022-07-28T05:20:46,42.805,6.029,CST-1368DR,4639,4989,11455,01.239,551
2022-07-28T05:23:47,42.805,6.029,CST-1368DR,4639,4990,11457,01.239,551
2022-07-28T05:26:49,42.805,6.029,CST-1368DR,4639,5001,11482,01.230,551
2022-07-28T05:29:50,42.805,6.029,CST-1368DR,4639,4999,11477,01.232,551
2022-07-28T05:32:52,42.805,6.029,CST-1368DR,4639,5006,11493,01.226,551
2022-07-28T05:35:54,42.805,6.029,CST-1368DR,4639,5009,11500,01.224,551
2022-07-28T05:38:55,42.805,6.029,CST-1368DR,4639,5019,11523,01.216,551
2022-07-28T05:41:57,42.805,6.029,CST-1368DR,4639,5002,11483,01.230,551
2022-07-28T05:44:58,42.805,6.029,CST-1368DR,4639,5023,11532,01.213,551
2022-07-28T05:48:00,42.805,6.029,CST-1368DR,4639,5005,11491,01.227,551
2022-07-28T05:51:01,42.805,6.029,CST-1368DR,4639,5001,11482,01.230,551
2022-07-28T05:54:03,42.805,6.029,CST-1368DR,4639,5007,11495,01.226,551
2022-07-28T05:57:05,42.805,6.029,CST-1368DR,4639,5003,11486,01.229,551
2022-07-28T06:00:06,42.805,6.029,CST-1368DR,4639,5002,11483,01.230,551
2022-07-28T06:03:08,42.805,6.029,CST-1368DR,4639,5005,11492,01.227,551
2022-07-28T06:06:09,42.805,6.029,CST-1368DR,4639,5003,11487,01.228,551
2022-07-28T06:09:11,42.805,6.029,CST-1368DR,4639,5002,11483,01.230,551
2022-07-28T06:12:12,42.805,6.029,CST-1368DR,4639,5002,11483,01.230,551
2022-07-28T06:15:14,42.805,6.029,CST-1368DR,4639,5002,11485,01.229,550
2022-07-28T06:18:16,42.805,6.029,CST-1368DR,4639,5003,11487,01.228,551
2022-07-28T06:21:17,42.805,6.029,CST-1368DR,4639,5002,11483,01.230,551
2022-07-28T06:24:19,42.805,6.029,CST-1368DR,4639,5000,11481,01.230,551
2022-07-28T06:27:20,42.805,6.029,CST-1368DR,4639,4999,11478,01.231,551
2022-07-28T06:30:22,42.805,6.029,CST-1368DR,4639,5002,11483,01.230,551
2022-07-28T06:33:24,42.805,6.029,CST-1368DR,4639,4999,11478,01.231,551
2022-07-28T06:36:25,42.805,6.029,CST-1368DR,4639,4998,11476,01.232,551
2022-07-28T06:39:27,42.805,6.029,CST-1368DR,4639,4998,11475,01.233,551
2022-07-28T06:42:28,42.805,6.029,CST-1368DR,4639,4999,11478,01.231,551
2022-07-28T06:45:30,42.805,6.029,CST-1368DR,4639,4999,11477,01.232,551
2022-07-28T06:48:31,42.805,6.029,CST-1368DR,4639,4999,11477,01.232,551
2022-07-28T06:51:33,42.805,6.029,CST-1368DR,4639,4999,11478,01.231,551
2022-07-28T06:54:35,42.805,6.029,CST-1368DR,4639,4996,11471,01.234,551
2022-07-28T06:57:36,42.805,6.029,CST-1368DR,4639,4998,11476,01.232,551
2022-07-28T07:00:38,42.805,6.029,CST-1368DR,4639,4998,11476,01.232,551
2022-07-28T07:03:39,42.805,6.029,CST-1368DR,4639,4999,11478,01.231,551
2022-07-28T07:06:41,42.805,6.029,CST-1368DR,4639,4999,11477,01.232,551
2022-07-28T07:09:43,42.805,6.029,CST-1368DR,4639,4998,11475,01.233,551
2022-07-28T07:12:44,42.805,6.029,CST-1368DR,4639,4999,11478,01.231,551
2022-07-28T07:15:46,42.805,6.029,CST-1368DR,4639,4998,11474,01.233,551
2022-07-28T07:18:47,42.805,6.029,CST-1368DR,4639,4996,11471,01.234,551
2022-07-28T07:21:49,42.805,6.029,CST-1368DR,4639,4997,11473,01.233,551
2022-07-28T07:24:50,42.805,6.029,CST-1368DR,4639,4997,11473,01.233,551
2022-07-28T07:27:52,42.805,6.029,CST-1368DR,4639,4997,11473,01.233,551
2022-07-28T07:30:54,42.805,6.029,CST-1368DR,4639,4996,11471,01.234,551
2022-07-28T07:33:55,42.805,6.029,CST-1368DR,4639,4997,11472,01.234,551
2022-07-28T07:36:57,42.805,6.029,CST-1368DR,4639,4998,11475,01.233,551
2022-07-28T07:39:58,42.805,6.029,CST-1368DR,4639,4997,11474,01.233,551
2022-07-28T07:43:00,42.805,6.029,CST-1368DR,4639,4996,11471,01.234,551
2022-07-28T07:46:01,42.805,6.029,CST-1368DR,4639,4993,11463,01.237,551
2022-07-28T07:49:03,42.805,6.029,CST-1368DR,4639,4995,11468,01.235,551
2022-07-28T07:52:05,42.805,6.029,CST-1368DR,4639,4994,11466,01.236,551
2022-07-28T07:55:06,42.805,6.029,CST-1368DR,4639,4994,11466,01.236,551
2022-07-28T07:58:08,42.805,6.029,CST-1368DR,4639,4994,11465,01.236,551
2022-07-28T08:01:09,42.805,6.029,CST-1368DR,4639,5003,11486,01.229,551
2022-07-28T08:04:11,42.805,6.029,CST-1368DR,4639,4992,11461,01.237,551
2022-07-28T08:07:13,42.805,6.029,CST-1368DR,4639,4993,11463,01.237,551
2022-07-28T08:10:14,42.805,6.029,CST-1368DR,4639,4992,11462,01.237,551
2022-07-28T08:13:16,42.805,6.029,CST-1368DR,4639,4992,11462,01.237,551
2022-07-28T08:16:17,42.805,6.029,CST-1368DR,4639,4992,11462,01.237,551
2022-07-28T08:19:19,42.805,6.029,CST-1368DR,4639,4992,11462,01.237,551
2022-07-28T08:22:20,42.805,6.029,CST-1368DR,4639,4992,11462,01.237,551
2022-07-28T08:25:22,42.805,6.029,CST-1368DR,4639,4994,11466,01.236,551
2022-07-28T08:28:24,42.805,6.029,CST-1368DR,4639,4992,11461,01.237,551
2022-07-28T08:31:25,42.805,6.029,CST-1368DR,4639,4992,11461,01.237,551
2022-07-28T08:34:27,42.805,6.029,CST-1368DR,4639,4992,11461,01.237,551
2022-07-28T08:37:28,42.805,6.029,CST-1368DR,4639,4992,11461,01.237,551
2022-07-28T08:40:30,42.805,6.029,CST-1368DR,4639,4993,11463,01.237,551
2022-07-28T08:43:31,42.805,6.029,CST-1368DR,4639,4993,11464,01.236,551
2022-07-28T08:46:33,42.805,6.029,CST-1368DR,4639,4992,11462,01.237,551
2022-07-28T08:49:35,42.805,6.029,CST-1368DR,4639,4993,11463,01.237,551
2022-07-28T08:52:36,42.805,6.029,CST-1368DR,4639,4991,11458,01.238,551
2022-07-28T08:55:38,42.805,6.029,CST-1368DR,4639,4992,11462,01.237,551
2022-07-28T08:58:39,42.805,6.029,CST-1368DR,4639,4993,11463,01.237,551
2022-07-28T09:01:41,42.805,6.029,CST-1368DR,4639,4993,11463,01.237,551
2022-07-28T09:04:43,42.805,6.029,CST-1368DR,4639,4992,11462,01.237,551
2022-07-28T09:07:44,42.805,6.029,CST-1368DR,4639,4991,11460,01.238,551
2022-07-28T09:10:46,42.805,6.029,CST-1368DR,4639,4993,11464,01.236,551
2022-07-28T09:13:47,42.805,6.029,CST-1368DR,4639,4995,11467,01.235,551
2022-07-28T09:16:49,42.805,6.029,CST-1368DR,4639,4994,11465,01.236,551
2022-07-28T09:19:50,42.805,6.029,CST-1368DR,4639,4994,11465,01.236,551
2022-07-28T09:22:52,42.805,6.029,CST-1368DR,4639,4992,11461,01.237,551
2022-07-28T09:25:54,42.805,6.029,CST-1368DR,4639,4995,11469,01.235,551
2022-07-28T09:28:55,42.805,6.029,CST-1368DR,4639,4993,11465,01.236,551
2022-07-28T09:31:57,42.805,6.029,CST-1368DR,4639,4996,11470,01.234,551
2022-07-28T09:34:58,42.805,6.029,CST-1368DR,4639,4993,11463,01.237,551
2022-07-28T09:38:00,42.805,6.029,CST-1368DR,4639,4995,11469,01.235,551
2022-07-28T09:41:01,42.805,6.029,CST-1368DR,4639,4996,11470,01.234,551
2022-07-28T09:44:03,42.805,6.029,CST-1368DR,4639,4994,11466,01.236,551
2022-07-28T09:47:05,42.805,6.029,CST-1368DR,4639,4995,11469,01.235,551
2022-07-28T09:50:06,42.805,6.029,CST-1368DR,4639,4993,11464,01.236,551
2022-07-28T09:53:08,42.805,6.029,CST-1368DR,4639,4993,11463,01.237,551
2022-07-28T09:56:09,42.805,6.029,CST-1368DR,4639,4995,11469,01.235,551
2022-07-28T09:59:11,42.805,6.029,CST-1368DR,4639,4996,11471,01.234,551
2022-07-28T10:02:13,42.805,6.029,CST-1368DR,4639,4995,11467,01.235,551
2022-07-28T10:05:14,42.805,6.029,CST-1368DR,4639,4993,11465,01.236,551
2022-07-28T10:08:16,42.805,6.029,CST-1368DR,4639,4995,11467,01.235,551
2022-07-28T10:11:17,42.805,6.029,CST-1368DR,4639,4995,11469,01.235,551
2022-07-28T10:14:19,42.805,6.029,CST-1368DR,4639,4996,11470,01.234,551
2022-07-28T10:17:20,42.805,6.029,CST-1368DR,4639,4995,11469,01.235,551
2022-07-28T10:20:22,42.805,6.029,CST-1368DR,4639,4995,11468,01.235,550
2022-07-28T10:23:24,42.805,6.029,CST-1368DR,4639,4999,11478,01.231,551
2022-07-28T10:26:25,42.805,6.029,CST-1368DR,4639,4997,11474,01.233,551
2022-07-28T10:29:27,42.805,6.029,CST-1368DR,4639,4996,11470,01.234,551
2022-07-28T10:32:28,42.805,6.029,CST-1368DR,4639,4997,11473,01.233,551
2022-07-28T10:35:30,42.805,6.029,CST-1368DR,4639,4993,11465,01.236,551
2022-07-28T10:38:31,42.805,6.029,CST-1368DR,4639,4996,11471,01.234,551
2022-07-28T10:41:33,42.805,6.029,CST-1368DR,4639,4996,11470,01.234,551
2022-07-28T10:44:35,42.805,6.029,CST-1368DR,4639,4997,11474,01.233,551
2022-07-28T10:47:36,42.805,6.029,CST-1368DR,4639,4994,11466,01.236,551
2022-07-28T10:50:38,42.805,6.029,CST-1368DR,4639,4997,11473,01.233,551
2022-07-28T10:53:39,42.805,6.029,CST-1368DR,4639,4995,11467,01.235,551
2022-07-28T10:56:41,42.805,6.029,CST-1368DR,4639,4995,11469,01.235,551
2022-07-28T10:59:43,42.805,6.029,CST-1368DR,4639,4998,11474,01.233,551
2022-07-28T11:02:44,42.805,6.029,CST-1368DR,4639,4996,11471,01.234,551
2022-07-28T11:05:46,42.805,6.029,CST-1368DR,4639,4997,11472,01.234,551
2022-07-28T11:08:47,42.805,6.029,CST-1368DR,4639,4995,11468,01.235,551
2022-07-28T11:11:49,42.805,6.029,CST-1368DR,4639,4993,11465,01.236,551
2022-07-28T11:14:50,42.805,6.029,CST-1368DR,4639,4993,11465,01.236,551
2022-07-28T11:17:52,42.805,6.029,CST-1368DR,4639,4995,11468,01.235,551
2022-07-28T11:20:54,42.805,6.029,CST-1368DR,4639,4992,11461,01.237,551
2022-07-28T11:23:55,42.805,6.029,CST-1368DR,4639,4995,11468,01.235,551
2022-07-28T11:26:57,42.805,6.029,CST-1368DR,4639,4992,11462,01.237,551
2022-07-28T11:29:58,42.805,6.029,CST-1368DR,4639,4993,11465,01.236,551
2022-07-28T11:33:00,42.805,6.029,CST-1368DR,4639,4999,11477,01.232,551
2022-07-28T11:36:01,42.805,6.029,CST-1368DR,4639,4994,11466,01.236,551
2022-07-28T11:39:03,42.805,6.029,CST-1368DR,4639,4997,11472,01.234,551
2022-07-28T11:42:05,42.805,6.029,CST-1368DR,4639,4994,11466,01.236,551
2022-07-28T11:45:06,42.805,6.029,CST-1368DR,4639,4997,11473,01.233,551
2022-07-28T11:48:08,42.805,6.029,CST-1368DR,4639,4993,11464,01.236,551
2022-07-28T11:51:09,42.805,6.029,CST-1368DR,4639,4997,11472,01.234,551
2022-07-28T11:54:11,42.805,6.029,CST-1368DR,4639,4998,11476,01.232,551
2022-07-28T11:57:13,42.805,6.029,CST-1368DR,4639,4997,11472,01.234,551
2022-07-28T12:00:14,42.805,6.029,CST-1368DR,4639,4995,11469,01.235,551
2022-07-28T12:03:16,42.805,6.029,CST-1368DR,4639,4995,11469,01.235,551
2022-07-28T12:06:17,42.805,6.029,CST-1368DR,4639,5003,11486,01.229,551
2022-07-28T12:09:19,42.805,6.029,CST-1368DR,4639,5007,11496,01.225,551
2022-07-28T12:12:20,42.805,6.029,CST-1368DR,4639,5000,11481,01.230,551
2022-07-28T12:15:22,42.805,6.029,CST-1368DR,4639,5001,11483,01.230,551
2022-07-28T12:18:24,42.805,6.029,CST-1368DR,4639,5004,11490,01.227,551
2022-07-28T12:21:25,42.805,6.029,CST-1368DR,4639,5003,11486,01.229,551
2022-07-28T12:24:27,42.805,6.029,CST-1368DR,4639,5003,11487,01.228,551
2022-07-28T12:27:28,42.805,6.029,CST-1368DR,4639,5006,11494,01.226,551
2022-07-28T12:30:30,42.805,6.029,CST-1368DR,4639,5006,11494,01.226,551
2022-07-28T12:33:31,42.805,6.029,CST-1368DR,4639,5004,11489,01.228,551
2022-07-28T12:36:33,42.805,6.029,CST-1368DR,4639,5005,11492,01.227,551
2022-07-28T12:39:35,42.805,6.029,CST-1368DR,4639,5006,11494,01.226,551
2022-07-28T12:42:36,42.805,6.029,CST-1368DR,4639,5006,11494,01.226,551
2022-07-28T12:45:38,42.805,6.029,CST-1368DR,4639,5008,11497,01.225,551
2022-07-28T12:48:39,42.805,6.029,CST-1368DR,4639,5011,11504,01.222,551
2022-07-28T12:51:41,42.805,6.029,CST-1368DR,4639,5005,11492,01.227,551
2022-07-28T12:54:43,42.805,6.029,CST-1368DR,4639,5002,11485,01.229,551
2022-07-28T12:57:44,42.805,6.029,CST-1368DR,4639,5000,11480,01.231,551
2022-07-28T13:00:46,42.805,6.029,CST-1368DR,4639,4999,11478,01.231,551
2022-07-28T13:03:47,42.805,6.029,CST-1368DR,4639,5006,11493,01.226,551
2022-07-28T13:06:49,42.805,6.029,CST-1368DR,4639,5007,11496,01.225,551
2022-07-28T13:09:50,42.805,6.029,CST-1368DR,4639,5007,11495,01.226,551
2022-07-28T13:12:52,42.805,6.029,CST-1368DR,4639,5002,11485,01.229,551
2022-07-28T13:15:54,42.805,6.029,CST-1368DR,4639,5008,11498,01.224,551
2022-07-28T13:18:55,42.805,6.029,CST-1368DR,4639,5008,11498,01.224,551
2022-07-28T13:21:57,42.805,6.029,CST-1368DR,4639,5009,11500,01.224,551
2022-07-28T13:24:58,42.805,6.029,CST-1368DR,4639,5009,11501,01.223,551
2022-07-28T13:28:00,42.805,6.029,CST-1368DR,4639,5008,11498,01.224,551
2022-07-28T13:31:02,42.805,6.029,CST-1368DR,4639,5011,11505,01.222,551
2022-07-28T13:34:03,42.805,6.029,CST-1368DR,4639,5012,11506,01.222,551
2022-07-28T13:37:05,42.805,6.029,CST-1368DR,4639,5011,11505,01.222,551
2022-07-28T13:40:06,42.805,6.029,CST-1368DR,4639,5011,11505,01.222,551
2022-07-28T13:43:08,42.805,6.029,CST-1368DR,4639,5010,11502,01.223,551
2022-07-28T13:46:09,42.805,6.029,CST-1368DR,4639,5008,11499,01.224,551
2022-07-28T13:49:11,42.805,6.029,CST-1368DR,4639,5010,11504,01.222,551
2022-07-28T13:52:13,42.805,6.029,CST-1368DR,4639,5009,11500,01.224,551
2022-07-28T13:55:14,42.805,6.029,CST-1368DR,4639,5003,11486,01.229,551
2022-07-28T13:58:16,42.805,6.029,CST-1368DR,4639,5010,11502,01.223,551
2022-07-28T14:01:17,42.805,6.029,CST-1368DR,4639,5010,11503,01.223,551
2022-07-28T14:04:19,42.805,6.029,CST-1368DR,4639,5009,11500,01.224,551
2022-07-28T14:07:20,42.805,6.029,CST-1368DR,4639,5010,11502,01.223,551
2022-07-28T14:10:22,42.805,6.029,CST-1368DR,4639,5005,11491,01.227,551
2022-07-28T14:13:24,42.805,6.029,CST-1368DR,4639,5011,11505,01.222,551
2022-07-28T14:16:25,42.805,6.029,CST-1368DR,4639,5010,11502,01.223,551
2022-07-28T14:19:27,42.805,6.029,CST-1368DR,4639,5010,11504,01.222,551
2022-07-28T14:22:28,42.805,6.029,CST-1368DR,4639,5009,11500,01.224,551
2022-07-28T14:25:30,42.805,6.029,CST-1368DR,4639,5009,11500,01.224,551
2022-07-28T14:28:32,42.805,6.029,CST-1368DR,4639,5010,11502,01.223,551
2022-07-28T14:31:33,42.805,6.029,CST-1368DR,4639,5009,11500,01.224,551
2022-07-28T14:34:35,42.805,6.029,CST-1368DR,4639,5007,11495,01.226,551
2022-07-28T14:37:36,42.805,6.029,CST-1368DR,4639,5006,11493,01.226,551
2022-07-28T14:40:38,42.805,6.029,CST-1368DR,4639,5006,11494,01.226,551
2022-07-28T14:43:39,42.805,6.029,CST-1368DR,4639,5008,11498,01.224,551
2022-07-28T14:46:41,42.805,6.029,CST-1368DR,4639,5006,11494,01.226,551
2022-07-28T14:49:43,42.805,6.029,CST-1368DR,4639,5003,11487,01.228,551
2022-07-28T14:52:44,42.805,6.029,CST-1368DR,4639,5002,11485,01.229,551
2022-07-28T14:55:46,42.805,6.029,CST-1368DR,4639,5003,11487,01.228,551
2022-07-28T14:58:47,42.805,6.029,CST-1368DR,4639,5004,11489,01.228,551
2022-07-28T15:01:49,42.805,6.029,CST-1368DR,4639,5002,11485,01.229,551
2022-07-28T15:04:50,42.805,6.029,CST-1368DR,4639,5001,11482,01.230,551
2022-07-28T15:07:52,42.805,6.029,CST-1368DR,4639,5001,11481,01.230,551
2022-07-28T15:10:54,42.805,6.029,CST-1368DR,4639,5000,11480,01.231,551
2022-07-28T15:13:55,42.805,6.029,CST-1368DR,4639,5000,11479,01.231,551
2022-07-28T15:16:57,42.805,6.029,CST-1368DR,4639,4999,11477,01.232,551
2022-07-28T15:19:58,42.805,6.029,CST-1368DR,4639,5002,11484,01.229,551
2022-07-28T15:23:00,42.805,6.029,CST-1368DR,4639,4998,11476,01.232,551
2022-07-28T15:26:02,42.805,6.029,CST-1368DR,4639,5000,11479,01.231,551
2022-07-28T15:29:03,42.805,6.029,CST-1368DR,4639,4999,11477,01.232,551
2022-07-28T15:32:05,42.805,6.029,CST-1368DR,4639,4999,11478,01.231,551
2022-07-28T15:35:06,42.805,6.029,CST-1368DR,4639,5001,11483,01.230,551
2022-07-28T15:38:08,42.805,6.029,CST-1368DR,4639,5005,11492,01.227,551
2022-07-28T15:41:09,42.805,6.029,CST-1368DR,4639,4999,11478,01.231,551
2022-07-28T15:44:11,42.805,6.029,CST-1368DR,4639,4997,11473,01.233,551
2022-07-28T15:47:13,42.805,6.029,CST-1368DR,4639,4997,11473,01.233,551
2022-07-28T15:50:14,42.805,6.029,CST-1368DR,4639,4996,11471,01.234,551
2022-07-28T15:53:16,42.805,6.029,CST-1368DR,4639,4998,11474,01.233,551
2022-07-28T15:56:17,42.805,6.029,CST-1368DR,4639,4996,11470,01.234,551
2022-07-28T15:59:19,42.805,6.029,CST-1368DR,4639,4995,11469,01.235,551
2022-07-28T16:02:20,42.805,6.029,CST-1368DR,4639,4992,11462,01.237,551
2022-07-28T16:05:22,42.805,6.029,CST-1368DR,4639,4993,11465,01.236,551
2022-07-28T16:08:24,42.805,6.029,CST-1368DR,4639,4994,11466,01.236,551
2022-07-28T16:11:25,42.805,6.029,CST-1368DR,4639,4997,11474,01.233,551
2022-07-28T16:14:27,42.805,6.029,CST-1368DR,4639,4994,11465,01.236,551
2022-07-28T16:17:28,42.805,6.029,CST-1368DR,4639,4991,11460,01.238,551
2022-07-28T16:20:30,42.805,6.029,CST-1368DR,4639,4993,11463,01.237,551
2022-07-28T16:23:32,42.805,6.029,CST-1368DR,4639,4993,11463,01.237,551
2022-07-28T16:26:33,42.805,6.029,CST-1368DR,4639,4991,11459,01.238,551
2022-07-28T16:29:35,42.805,6.029,CST-1368DR,4639,4990,11457,01.239,551
2022-07-28T16:32:36,42.805,6.029,CST-1368DR,4639,4990,11457,01.239,551
2022-07-28T16:35:38,42.805,6.029,CST-1368DR,4639,4988,11453,01.240,551
2022-07-28T16:38:39,42.805,6.029,CST-1368DR,4639,4990,11457,01.239,551